Overview Statistics Trail Chart Weather Telemetry Raw packets
 

This is the latest recevied weather packets stored in our database for station/object N1SU-13. If no packets are shown the sender has not sent any weather packets the latest 10 day(s).

<< 12 13 14 15 16 17 18 >>
Time Temp. Humidity Pressure Rain* Wind** Luminosity Snow
1788494170 12.78° C 84% 1009.6 hPa 0 mm - - -
1788493514 12.78° C 84% 1009.5 hPa 0 mm - - -
1788492853 12.78° C 82% 1009.4 hPa 0 mm - - -
1788492262 13.33° C 82% 1009.2 hPa 0 mm - - -
1788491666 13.33° C 81% 1009 hPa 0 mm - - -
1788491096 13.33° C 80% 1009 hPa 0 mm - - -
1788490438 13.89° C 79% 1009 hPa 0 mm - - -
1788489779 13.89° C 79% 1008.9 hPa 0 mm - - -
1788489185 13.89° C 76% 1008.9 hPa 0 mm - - -
1788488558 14.44° C 75% 1008.9 hPa 0 mm - - -
1788487863 14.44° C 74% 1008.6 hPa 0 mm - - -
1788487283 15° C 74% 1008.7 hPa 0 mm - - -
1788486601 15° C 75% 1008.6 hPa 0 mm - - -
1788485907 15.56° C 73% 1008.4 hPa 0 mm - - -
1788485268 15.56° C 73% 1008.5 hPa 0 mm - - -
1788484663 16.11° C 74% 1008.4 hPa 0 mm - - -
1788483974 16.11° C 73% 1008.3 hPa 0 mm - - -
1788483386 16.67° C 73% 1008.4 hPa 0 mm - - -
1788482750 17.22° C 71% 1008.3 hPa 0 mm - - -
1788482182 17.78° C 67% 1008.3 hPa 0 mm - - -
1788481590 17.78° C 65% 1008.2 hPa 0 mm - - -
1788480928 17.78° C 63% 1008.2 hPa 0 mm - - -
1788480252 17.22° C 64% 1008.2 hPa 0 mm - - -
1788479626 16.67° C 66% 1008.3 hPa 0 mm - - -
1788478925 16.67° C 67% 1008.3 hPa 0 mm - - -

* Rain latest hour (hover to see other rain measurements)
** Current wind speed in m/s (hover to see current wind gust speed)